Dunhuang, China
Current Conditions -  °F | °C
As of 4:00 AM on Friday 24 Oct 2014 (Local Time) from ZWWW Reporting Station
Smoke Smoke  
Wind Chill: 52°   Ceiling: Unl
Heat Index: 52°   Visibility: 3mi
Dew Point: 39°   Wind: 4mph
Humidity: 62%   Direction: 230°SW
Pressure: 29.94"   Gusts: NA
Location:  40.15°N, 94.68°E
Report Text: ZWWW 232000Z 23002MPS 5000 FU NSC 11/04 Q1014 NOSIG
Loading
Personal Weather Stations






























Interactive Weather Map
Tropical Storm Tracking
New forecast layout! Learn more

10-Day Weather Forecast

Advertisements
Track Severe Weather on mobile